Время (UTC), дата Ветер
(°,м/с) 
Видим.   Явления Облачность Т
(°С)
Тd
(°С)
f(%) Тe
(°С)
Pmin
(гПа)
dP
(гПа)
Po
(мм)
O2
(г/м3)
Тmin Tmax R s Состояние
почвы
00 01.07.12 тихо ()   >10 км    10/10 600 м кучево-дожд. 
[Cb cap]
+16.5 +13.4 82 +23  1006.7  -0.2  731  275  +15.2    0.0     
03 01.07.12 030 (СВ) >10 км    10/10 600 м кучево-дожд. 
[Cb cap]
+18.8 +14.5 76 +28  1005.8  -0.6  731  272           
06 01.07.12 080 (В) >10 км    10/10 600 м кучево-дожд. 
[Cb cap]
+22.8 +13.9 57 +30  1005  -0.4  730  269           
09 01.07.12 060 (СВ) >10 км    10/10 600 м кучево-дожд. 
[Cb cap]
+23.7 +14.4 56 +32  1004.7  -0.1  730  268           
12 01.07.12 тихо ()   >10 км  {дождь}  10/10 600 м кучево-дожд. 
[Cb cap]
+21.7 +16.4 72 +34  1005.2  0.2  730  269    +24.1  0.0     
15 01.07.12 270 (З) >10 км    10/10 600 м кучево-дожд. 
[Cb cap]
+19.9 +15.9 78 +32  1005.3  -0.1  730  271           
18 01.07.12  ()       н/о 
                   
21 01.07.12 250 (З) >10 км    8/3 2000 м средняя, верхняя 
[Ac trans|Ci fib]
+15.1 +13.6 91 +23  1004.4  -0.8  729  276           
00 02.07.12 080 (В) >10 км    9/5 600 м кучево-дожд., средняя 
[Cb cap|Ac trans]
+17.6 +15.1 85 +29  1004.8  0.6  730  273  +14.6         
03 02.07.12 060 (СВ) >10 км    9/3 600 м средняя, верхняя 
[Cu med, cong|Ac trans|Ci fib]
+22.9 +15.2 62 +33  1004.1  -0.2  730  268           
06 02.07.12 080 (В) >10 км    8/6 600 м верхняя 
[Cu med, cong|Cc]
+24.9 +14.1 51 +33  1003.5  -0.3  729  266           
09 02.07.12 060 (СВ) >10 км    9/8 600 м кучево-дожд., средняя 
[Cb cap|Ac trans]
+24.3 +14.6 55 +33  1003.5  -0.1  729  267           
12 02.07.12 090 (В) >10 км    8/3 600 м средняя, верхняя 
[Cu med, cong|Ac trans|Cc]
+24.4 +13.6 51 +31  1003.8  0.3  730  267    +25.8       
15 02.07.12 тихо ()   >10 км    6/3 600 м средняя, верхняя 
[Cu med, cong|Ac trans|Cc]
+19.7 +13.4 67 +26  1005.6  1.2  730  272           
18 02.07.12 250 (З) 4000 м  {морось}  6/3 2000 м средняя, верхняя 
[Ac trans|Ci fib]
+15.3 +14.2 93 +25    -0.5  730  276           
21 02.07.12 250 (З) >10 км    8/3 600 м кучево-дожд., верхняя 
[Cb cap|Ci fib]
+14.1 +12.1 88 +20  1005.8  0.2  730  277           
00 03.07.12 050 (СВ) >10 км    8/3 600 м кучево-дожд., верхняя 
[Cb cap|Ci fib]
+17.3 +13.4 78 +26  1005.6  0.1  730  274  +13.1         
03 03.07.12 120 (ЮВ) >10 км    9/3 2000 м средняя, верхняя 
[Ac trans|Ci fib]
+22 +13.7 59 +29  1005.1  730  270           
06 03.07.12 070 (В) >10 км    9/4 600 м кучево-дожд., средняя, верхняя 
[Cb cap|Ac trans|Ci fib]
+27 +12 39 +32  1003.4  -1.1  729  265           
09 03.07.12 230 (ЮЗ) >10 км  слаб. ливневой дождь  9/8 600 м кучево-дожд., средняя 
[Cb cap|Ac trans]
+21.6 +17 75 +35  1004.1  0.1  730  269           
12 03.07.12 020 (С) >10 км  {ливн. осадки}  9/6 600 м кучево-дожд., средняя, верхняя 
[Cb cap|Ac trans|Ci fib]
+23 +13.1 54 +29  1003.3  -0.6  729  268    +28.3  0.5     
15 03.07.12 240 (ЮЗ) >10 км    8/5 2000 м средняя, верхняя 
[Ac trans|Ci fib]
+18.8 +13.9 73 +28  1004.6  0.8  730  272           
18 03.07.12 230 (ЮЗ) 4000 м    8/4 2000 м средняя, верхняя 
[Ac trans|Ci fib]
+15.1 +12 82 +21  1004.8  -0.2  730  276           
21 03.07.12 тихо ()   >10 км    8/4 600 м средняя, верхняя 
[Cu med, cong|Ac trans|Ci fib]
+13.7 +11.9 89 +18  1004.1  -0.9  729  277           
00 04.07.12 тихо ()   >10 км    ясно 
+14.9 +12.5 86 +20  1004.1  0.3  729  276  +12.9         
03 04.07.12 250 (З) 10 км    3/3 2000 м средняя 
[Ac cast]
+20.7 +14.8 69 +30  1003.6  0.1  729  270           
06 04.07.12 030 (СВ) 10 км    9/0 средняя, верхняя 
[As trans|Ci fib]
+25.8 +13.8 47 +33  1001.9  -1.1  728  265           
09 04.07.12 110 (В) 10 км    9/5 600 м кучево-дожд., верхняя 
[Cb cap|Ci fib]
+27.5 +13.1 41 +34  1000.8  -1  728  264           
12 04.07.12 060 (СВ) 10 км    9/6 600 м кучево-дожд., средняя 
[Cb cap|Ac trans]
+25.7 +12 42 +30  1001.1  0.1  728  266    +27.8       
15 04.07.12 090 (В) >10 км    10/10 600 м кучево-дожд. 
[Cb cap]
+21.5 +12.7 57 +27  1002.7  1.1  728  270           
18 04.07.12 210 (ЮЗ) 4000 м    9/8 600 м кучево-дожд., верхняя 
[Cb cap|Ci fib]
+17.5 +13.8 79 +26  1003.1  728  273           
21 04.07.12 240 (ЮЗ) >10 км  слаб. ливневой дождь  10/10 600 м кучево-дожд. 
[Cb cap]
+17 +15.3 90 +28  1003.2  0.1  729  273           
00 05.07.12 240 (ЮЗ) 4000 м  ливневой дождь  10/10 600 м кучево-дожд. 
[Cb cap]
+16.9 +15.7 93 +29  1003.6  0.4  729  273  +16.8       
03 05.07.12 250 (З) 4000 м  ливневой дождь  10/10 600 м кучево-дожд. 
[Cb cap]
+17.3 +16.6 96 +31  1003.9  0.3  729  273           
06 05.07.12 тихо ()   >10 км  слаб. ливневой дождь  10/10 600 м кучево-дожд. 
[Cb cap]
+20.2 +17.6 85 +35  1003.4  -0.2  729  269           
09 05.07.12 230 (ЮЗ) 4000 м  дым{ливн. осадки}  9/9 600 м кучево-дожд., верхняя 
[Cb cap|Ci fib]
+22.5 +16.3 68 +34  1002.6  -0.5  729  268           
12 05.07.12 240 (ЮЗ) >10 км  {ливн. осадки}  9/8 600 м кучево-дожд., верхняя 
[Cb cap|Ci fib]
+22.3 +18.1 77 +38  1002.8  0.1  729  267    +23.2  15     
15 05.07.12 210 (ЮЗ) 10 км  гроза, ливневой дождь  10/10 600 м кучево-дожд. 
[Cb cap]
+19.3 +18.2 93 +37  1004.6  1.5  730  270           
18 05.07.12 230 (ЮЗ) 4000 м  {гроза, ливн. осадки}  10/10 600 м кучево-дожд. 
[Cb cap]
+17.8 +16.9 94 +32  1002.7  -2  728  272           
21 05.07.12 210 (ЮЗ) >10 км    10/6 600 м кучево-дожд., средняя 
[Cb cap|Ac As]
+18.5 +16.5 88 +31  1002  -0.6  728  271           
00 06.07.12 210 (ЮЗ) >10 км    10/3 2000 м средняя, верхняя 
[Ac lent|Cs]
+18.8 +16.6 87 +32  1002  728  271  +17.5       
03 06.07.12 240 (ЮЗ) >10 км    8/8 2000 м средняя 
[Ac trans]
+21.6 +17.4 77 +36  1001.7  728  268           
06 06.07.12 260 (З) >10 км  {гроза}  10/4 600 м кучево-дожд., средняя 
[Cb cap|Ac As]
+23.7 +18 70 +39  1001  -0.5  727  266           
09 06.07.12 220 (ЮЗ) >10 км    8/5 2000 м средняя, верхняя 
[Ac trans|Ci fib]
+25.8 +17.9 62 +41  1000.3  -0.4  727  264           
12 06.07.12 тихо ()   4000 м  дымка  4/0 верхняя 
[Ci fib]
+24.7 +19.6 73 +44  1030.6  -0.7  727  264    +26.6       
15 06.07.12 190 (Ю) 4000 м  дымка  3/0 верхняя 
[Ci fib]
+20 +17.7 87 +35  1000.7  0.5  727  269           
18 06.07.12 200 (Ю) 4000 м    ясно 
+18.3 +16.8 91 +33  1000.2  -0.7  726  271           
21 06.07.12 230 (ЮЗ) >10 км    3/0 верхняя 
[Ci fib]
+18.7 +17.4 92 +34  999.5  -0.6  726  270           
00 07.07.12 230 (ЮЗ) 4000 м  дымка  9/8 600 м кучево-дожд., верхняя 
[Cb cap|Ci fib]
+19.5 +17.7 89 +35  999.1  -0.3  726  269  +17.8         
03 07.07.12 250 (З) 4000 м  дымка  10/10 600 м кучево-дожд. 
[Cb cap]
+20.9 +18.2 85 +37  998.7  -0.3  726  267           
06 07.07.12 260 (З) 4000 м  дымка  10/8 600 м кучево-дожд., средняя 
[Cb cap|Ac trans]
+25.1 +19.9 73 +45  997.2  -0.9  725  263           
09 07.07.12 070 (В) 4000 м  дымка  10/8 600 м кучево-дожд., средняя 
[Cb cap|Ac trans]
+26 +20.7 73 +48  995.8  -1.2  724  261           
12 07.07.12 270 (З) 4000 м  дымка{гроза}  10/8 600 м кучево-дожд., средняя 
[Cb cap|Ac trans]
+23.3 +16.4 65 +36  996.7  0.4  724  265    +26.6       
15 07.07.12 270 (З) 4000 м  дымка{гроза}  10/10 600 м кучево-дожд. 
[Cb cap]
+22.4 +19.2 82 +40  997.7  0.9  725  265           
18 07.07.12 230 (ЮЗ) н/о  гроза, ливневой дождь  10/10 600 м кучево-дожд. 
[Cb cap]
+18.3 +17.1 93 +34  998.8  0.7  725  270           
21 07.07.12 250 (З) 4000 м  гроза, ливневой дождь  10/10 600 м кучево-дожд. 
[Cb cap]
+18.2 +17.2 94 +34  998.8  -0.1  725  270           
00 08.07.12 260 (З) 2000 м  слаб. ливневой дождь{гроза}  10/10 600 м кучево-дожд. 
[Cb cap]
+17.8 +16.8 94 +32  1000.6  1.8  727  271  +17.5       
03 08.07.12 320 (СЗ) 2000 м  дымка{ливн. осадки}  10/10 600 м кучево-дожд. 
[Cb cap]
+18.3 +16.8 91 +33  1001.6  0.9  727  271           
06 08.07.12 310 (СЗ) >10 км  {ливн. осадки}  10/10 600 м кучево-дожд. 
[Cb cap]
+19.6 +13.5 68 +28  1001.9  0.4  728  271           
09 08.07.12 090 (В) >10 км    9/5 600 м кучево-дожд., средняя, верхняя 
[Cb cap|Ac trans|Ci fib]
+22.9 +14.4 59 +31  1001.7  0.2  728  268           
12 08.07.12 120 (ЮВ) >10 км    9/3 600 м средняя, верхняя 
[Cu med, cong|Ac trans|Ci fib]
+23.1 +14.7 59 +32  1002.2  0.5  728  267    +23.4       
15 08.07.12 240 (ЮЗ) >10 км    9/4 600 м средняя, верхняя 
[Cu med, cong|Ac trans|Ci fib]
+18.9 +14.4 75 +28  1003.2  0.6  729  272           
18 08.07.12 270 (З) 4000 м    9/1 2000 м средняя, верхняя 
[Ac trans|Ci fib]
+16.8 +14 84 +26  1003.6  0.2  729  274           
21 08.07.12 220 (ЮЗ) >10 км    9/4 600 м кучево-дожд., средняя, верхняя 
[Cb cap|Ac trans|Ci]
+15 +13 88 +22  1003.4  -0.4  729  276           
00 09.07.12 270 (З) 4000 м  дымка  10/10 600 м кучево-дожд. 
[Cb cap]
+15.9 +13.7 87 +24  1003.9  0.6  729  275  +14.4         
03 09.07.12 250 (З) 2000 м  ливневой дождь  10/10 600 м кучево-дожд. 
[Cb cap]
+15 +14.1 94 +24  1004.4  0.4  729  276           
06 09.07.12 020 (С) 2000 м  ливневой дождь  10/10 300 м кучево-дожд. 
[Cb cap]
+14.2 +13.3 94 +22  1005  0.4  730  277           
09 09.07.12 290 (З) 2000 м  слаб. ливневой дождь  10/10 300 м кучево-дожд. 
[Cb cap]
+13.9 +13.3 96 +21  1007  731  278           
12 09.07.12 290 (З) >10 км  {ливн. осадки}  10/10 300 м кучево-дожд. 
[Cb cap]
+14 +13.2 95 +21  1009.3  2.2  733  278    +16  18     
15 09.07.12 270 (З) 10 км  {ливн. осадки}  10/10 600 м кучево-дожд. 
[Cb cap]
+12.2 +11.7 97 +17  1012.2  2.5  735  281           
18 09.07.12 250 (З) 4000 м  {ливн. осадки}  10/10 600 м кучево-дожд. 
[Cb cap]
+12 +11.2 95 +16  1013.8  1.5  736  282           
21 09.07.12 250 (З) 10 км    9/5 600 м кучево-дожд., средняя 
[Cb cap|Ac trans]
+10.6 +9.8 95 +12  1014.9  0.9  736  284           
00 10.07.12 240 (ЮЗ) 4000 м  дымка  8/4 2000 м средняя, верхняя 
[Ac trans|Ci fib]
+11.9 +10.2 89 +14  1016  1.2  737  283  +10    0.6     
03 10.07.12 280 (З) 4000 м  дымка  9/5 600 м кучево-дожд., средняя, верхняя 
[Cb cap|Ac trans|Ci fib]
+15.2 +10.6 74 +19  1016.2  0.7  738  280           
06 10.07.12 260 (З) 4000 м  дым  9/5 600 м кучево-дожд., верхняя 
[Cb cap|Ci fib]
+18.4 +9.9 58 +21  1015.8  -0.1  738  277           
09 10.07.12 320 (СЗ) 4000 м  дым  9/8 600 м кучево-дожд., верхняя 
[Cb cap|Ci fib]
+18.7 +10.3 58 +22  1015.2  -0.6  737  276           
12 10.07.12 310 (СЗ) 4000 м  дым  9/5 600 м кучево-дожд., средняя, верхняя 
[Cb cap|Ac trans|Ci fib]
+18.3 +12.2 68 +25  1014.7  -0.5  737  276    +19.5       
15 10.07.12 220 (ЮЗ) 2000 м  дым  9/3 600 м кучево-дожд., средняя, верхняя 
[Cb cap|Ac trans|Ci fib]
+13.3 +10.4 83 +17  1015.5  0.2  737  281           
18 10.07.12 230 (ЮЗ) н/о  дым  9/4 600 м кучево-дожд., средняя, верхняя 
[Cb cap|Ac trans|Ci fib]
+10.8 +9.4 91 +13  1015.9  0.1  737  284           
21 10.07.12 230 (ЮЗ) 2000 м  дымка  10/10 600 м кучево-дожд. 
[Cb cap]
+10.6 +9.8 95 +13  1015.7  -0.2  737  284           
00 11.07.12 250 (З) >10 км    10/10 600 м кучево-дожд. 
[Cb cap]
+11.7 +9.9 89 +14  1016.1  0.5  737  283  +10.5         
03 11.07.12 070 (В) 4000 м  дымка  9/8 600 м кучево-дожд., верхняя 
[Cb cap|Ci fib]
+16.5 +12.3 76 +23  1015.5  737  278           
06 11.07.12 350 (С) 4000 м  дым  9/8 600 м кучево-дожд., верхняя 
[Cb cap|Ci fib]
+19.6 +12.7 64 +26  1014.9  -0.3  737  275           
09 11.07.12 тихо ()   4000 м  дым  9/6 600 м кучево-дожд., верхняя 
[Cb cap|Ci fib]
+19.7 +11.1 58 +23  1014.7  -0.2  737  275           
12 11.07.12 240 (ЮЗ) 4000 м  дым  9/9 600 м кучево-дожд., верхняя 
[Cb cap|Ci fib]
+19.5 +13.5 68 +28  1014.9  0.2  737  275    +20.6       
15 11.07.12 220 (ЮЗ) 10 км    9/8 600 м кучево-дожд., верхняя 
[Cb cap|Ci fib]
+15.2 +11.3 78 +19  1015.5  0.2  737  279           
18 11.07.12 210 (ЮЗ) 4000 м    10/10 600 м кучево-дожд. 
[Cb cap]
+16.1 +11.4 74 +20  1015.8  0.4  738  278           
21 11.07.12 200 (Ю) 10 км    9/3 600 м кучево-дожд., средняя 
[Cb cap|Ac trans]
+14.8 +11.2 79 +18  1015.8  -0.2  737  280           
00 12.07.12 180 (Ю) 10 км    10/5 600 м кучево-дожд., средняя 
[Cb cap|Ac As]
+14.4 +10.6 78 +16  1016.8  738  281  +14.2         
03 12.07.12 210 (ЮЗ) 4000 м  дым  8/4 600 м кучево-дожд., средняя 
[Cb cap|Ac trans]
+18.8 +12.7 68 +24  1016.1  -0.2  738  276           
06 12.07.12 230 (ЮЗ) 4000 м  дым  9/8 600 м кучево-дожд., средняя 
[Cb cap|Ac trans]
+21.1 +11 52 +24  1015.1  -0.8  737  274           
09 12.07.12 080 (В) >10 км    8/4 600 м кучево-дожд., средняя, верхняя 
[Cb cap|Ac trans|Ci fib]
+22.1 +12.4 54 +27  1014.1  -0.8  737  272           
12 12.07.12 090 (В) >10 км    3/3 2000 м средняя 
[Ac trans]
+21.9 +12 53 +26  1013.5  -0.6  736  272    +23       
15 12.07.12 210 (ЮЗ) >10 км    3/0 верхняя 
[Ci fib]
+18.6 +11.9 65 +23  1013.9  -0.1  736  275           
18 12.07.12 220 (ЮЗ) 4000 м    4/0 верхняя 
[Ci fib]
+17.5 +11.2 67 +21  1014.2  0.2  737  277           
21 12.07.12 240 (ЮЗ) >10 км    9/8 600 м кучево-дожд., верхняя 
[Cb cap|Ci fib]
+16.1 +11.1 72 +20  1014.1  -0.2  736  278           
00 13.07.12 220 (ЮЗ) >10 км    6/3 600 м кучево-дожд., верхняя 
[Cb cap|Ci fib]
+16.4 +11 70 +20  1014.6  0.5  737  278  +15.7         
03 13.07.12 210 (ЮЗ) >10 км    6/0 верхняя 
[Ci fib]
+22.1 +12.6 55 +27  1013.5  -0.4  736  272           
06 13.07.12 240 (ЮЗ) >10 км    9/5 2000 м средняя, верхняя 
[Ac trans|Ci fib]
+25.2 +13.4 48 +32  1012.3  -0.8  736  269           
09 13.07.12 300 (СЗ) >10 км    4/3 2000 м средняя, верхняя 
[Ac trans|Ci fib]
+25.8 +13.8 47 +33  1010.9  -1.3  735  268           
12 13.07.12 270 (З) >10 км    6/0 верхняя 
[Ci fib]
+25.6 +14 49 +33  1010.5  -0.5  734  268    +27.6       
15 13.07.12 220 (ЮЗ) >10 км    9/4 2000 м средняя, верхняя 
[Ac trans|Ci fib]
+18.6 +13.9 74 +27  1011.2  -0.1  734  274           
18 13.07.12 240 (ЮЗ) 4000 м    ясно 
+16.2 +12.9 81 +24  1010.9  -0.5  734  277           
21 13.07.12 230 (ЮЗ) >10 км    ясно 
+14.6 +13.1 91 +22  1010.4  -0.6  734  278           
00 14.07.12 тихо ()   >10 км    3/0 верхняя 
[Ci fib]
+19.1 +15.1 78 +29  1009.9  734  273  +13.3         
03 14.07.12 080 (В) 10 км    3/0 верхняя 
[Ci sp]
+22.5 +15.7 65 +33  1008.6  -0.8  733  269           
06 14.07.12 040 (СВ) >10 км    9/5 600 м кучево-дожд., средняя, верхняя 
[Cb cap|Ac trans|Ci fib]
+24.7 +15.9 58 +36  1007.6  -0.8  732  267           
09 14.07.12 070 (В) >10 км    8/6 600 м верхняя 
[Cu med, cong|Ci fib]
+26.2 +15.1 50 +36  1006.5  -1  732  266           
12 14.07.12 020 (С) >10 км    3/3 600 м 
[Cu med, cong]
+24.3 +15.3 57 +34  1006.3  -0.3  731  267    +26.7       
15 14.07.12 260 (З) 4000 м  дым  9/4 600 м верхняя 
[Cu med, cong|Ci]
+19.1 +15.6 80 +30  1006.8  -0.1  731  272           
18 14.07.12 250 (З) 4000 м  дымка  9/0 верхняя 
[Ci fib]
+15.6 +14 90 +24  1006.6  -0.6  731  276           
21 14.07.12 260 (З) 4000 м  дымка  9/0 верхняя 
[Ci fib]
+14.3 +12.3 88 +21  1005.8  -0.9  730  277           
00 15.07.12 280 (З) 4000 м  дымка  9/0 верхняя 
[Ci fib]
+15.1 +12.9 87 +22  1005.5  -0.2  730  276  +12.9         
03 15.07.12 010 (С) 2000 м  дым  10/10 600 м кучево-дожд. 
[Cb cap]
+20.4 +14 67 +28  1004.9  -0.1  730  271           
06 15.07.12 310 (СЗ) 2000 м  дым  10/10 600 м кучево-дожд. 
[Cb cap]
+24.8 +14.4 52 +33  1003.5  -0.8  729  266           
09 15.07.12 260 (З) >10 км    6/6 600 м кучево-дожд. 
[Cb cap]
+25.8 +10.6 38 +28  1002.7  -0.7  729  266           
12 15.07.12 330 (СЗ) 4000 м  дым  10/10 600 м кучево-дожд. 
[Cb cap]
+23.9 +11.3 45 +27  1003.9  0.8  729  268    +26.3       
15 15.07.12 040 (СВ) 10 км    8/8 600 м кучево-дожд. 
[Cb cap]
+18.1 +13.9 76 +27  1006.2  1.8  731  273           
18 15.07.12 240 (ЮЗ) 4000 м    8/4 600 м кучево-дожд., средняя 
[Cb cap|Ac trans]
+15.3 +11.8 80 +21  1007.9  1.3  732  277           
21 15.07.12 250 (З) 10 км    3/3 600 м кучево-дожд. 
[Cb cap]
+13.9 +11.4 85 +19  1008.5  0.3  732  278           
00 16.07.12 250 (З) 10 км    6/3 2000 м средняя, верхняя 
[Ac trans|Ci fib]
+15.9 +12.1 78 +22  1008.5  0.3  732  276  +12.8         
03 16.07.12 270 (З) >10 км  {ливн. осадки}  9/6 600 м кучево-дожд., верхняя 
[Cb cap|Ci fib]
+17.3 +10.6 65 +21  1009.4  1.1  733  276           
06 16.07.12 260 (З) >10 км  {ливн. осадки}  9/8 600 м кучево-дожд., верхняя 
[Cb cap|Ci fib]
+19.2 +7.7 47 +20  1009.8  0.5  733  275           
09 16.07.12 250 (З) >10 км    8/5 600 м кучево-дожд., верхняя 
[Cb cap|Ci fib]
+21 +6.1 38 +21  1009.3  -0.3  733  273           
12 16.07.12 220 (ЮЗ) >10 км    9/8 600 м кучево-дожд., верхняя 
[Cb cap|Ci fib]
+20 +9.3 50 +21  1009.6  0.2  733  274    +21.4  0.0     
15 16.07.12 240 (ЮЗ) >10 км  в посл. час ливневой дождь  9/8 600 м кучево-дожд., верхняя 
[Cb cap|Ci fib]
+17.4 +8 54 +18  1010.3  0.5  734  277           
18 16.07.12 240 (ЮЗ) 4000 м    6/6 600 м кучево-дожд. 
[Cb cap]
+12.9 +8.1 73 +14  1011.3  0.3  734  281           
21 16.07.12 270 (З) >10 км  {гроза}  9/3 600 м кучево-дожд., верхняя 
[Cb cap|Ci fib]
+10.5 +7.6 82 +12  1010.9  -0.5  734  283           
00 17.07.12 тихо ()   >10 км    3/3 600 м 
[Cu med, cong]
+14.4 +9.8 74 +16  1011  0.5  734  279  +9    0.0     
03 17.07.12 330 (СЗ) >10 км    8/5 600 м верхняя 
[Cu med, cong|Ci fib]
+19.8 +6.7 43 +21  1010.5  734  275           
06 17.07.12 310 (СЗ) >10 км    9/6 600 м кучево-дожд., средняя, верхняя 
[Cb cap|Ac trans|Ci fib]
+21.8 +7 38 +22  1010.8  0.5  734  273           
09 17.07.12 330 (СЗ) 10 км    10/8 600 м кучево-дожд., средняя 
[Cb cap|Ac As]
+19.9 +8.9 49 +21  1011.1  0.1  734  274           
12 17.07.12 320 (СЗ) >10 км  слаб. ливневой дождь  10/10 600 м кучево-дожд. 
[Cb cap]
+18.1 +11.1 64 +23  1012.1  0.9  735  276    +22.1  0.0     
15 17.07.12 230 (ЮЗ) >10 км  {ливн. осадки}  10/10 600 м кучево-дожд. 
[Cb cap]
+15.8 +11 73 +20  1012.4  735  278           
18 17.07.12 240 (ЮЗ) 4000 м  {ливн. осадки}  10/10 600 м кучево-дожд. 
[Cb cap]
+17.9 +9.2 57 +20  1012.1  -0.1  735  276           
21 17.07.12 270 (З) >10 км    10/10 600 м кучево-дожд. 
[Cb cap]
+16.7 +9.7 63 +19  1012  -0.2  735  277           
00 18.07.12 270 (З) >10 км    9/8 600 м кучево-дожд., верхняя 
[Cb cap|Ci fib]
+17.6 +9.4 59 +19  1012.1  0.2  735  277  +15.3    0.0     
03 18.07.12 330 (СЗ) 4000 м  дым  8/8 2000 м средняя 
[Ac trans]
+20 +11.1 57 +23  1012.5  0.6  735  274           
06 18.07.12 320 (СЗ) 10 км    8/8 600 м кучево-дожд. 
[Cb cap]
+24.2 +12.6 48 +29  1011.4  -0.5  735  270           
09 18.07.12 270 (З) >10 км    8/8 600 м кучево-дожд. 
[Cb cap]
+26.3 +12.3 42 +31  1010.9  -0.3  735  268           
12 18.07.12 200 (Ю) >10 км    9/6 600 м кучево-дожд., верхняя 
[Cb cap|Ci fib]
+23.6 +13 51 +29  1011.5  0.3  735  270    +26.7       
15 18.07.12 210 (ЮЗ) >10 км    9/5 600 м кучево-дожд., средняя, верхняя 
[Cb cap|Ac lent|Ci fib]
+19.5 +13.9 70 +28  1012.7  0.7  736  274           
18 18.07.12 тихо ()   4000 м    3/3 2000 м средняя 
[Ac trans]
+14.9 +10.7 76 +17  1013.3  0.1  736  279           
21 18.07.12 тихо ()   >10 км    9/6 1000 м верхняя 
[Sc diur, vesp|Ci fib]
+13.5 +11.4 87 +17  1012.9  -0.6  735  280           
00 19.07.12 280 (З) >10 км    8/5 600 м кучево-дожд., средняя, верхняя 
[Cb cap|Ac lent|Ci fib]
+14.1 +10.4 78 +17  1013  0.3  735  280  +11.9         
03 19.07.12 090 (В) 4000 м  дым  9/5 600 м кучево-дожд., средняя, верхняя 
[Cb cap|Ac trans|Ci fib]
+20.8 +14.1 65 +28  1013.7  1.3  736  273           
06 19.07.12 080 (В) 4000 м  дым  9/4 600 м кучево-дожд., средняя, верхняя 
[Cb cap|Ac trans|Ci fib]
+23.2 +13.8 55 +30  1012.5  -0.8  736  271           
09 19.07.12 040 (СВ) 4000 м  дым  9/4 600 м кучево-дожд., средняя, верхняя 
[Cb cap|Ac trans|Ci fib]
+24.3 +13.9 52 +32  1011.3  -1.1  735  269           
12 19.07.12 240 (ЮЗ) 4000 м  дым  9/5 600 м кучево-дожд., средняя, верхняя 
[Cb cap|Ac trans|Ci fib]
+24.1 +13.9 53 +31  1010.8  -0.5  735  269    +25.5       
15 19.07.12 220 (ЮЗ) >10 км    8/8 2000 м средняя 
[Ac trans]
+20.3 +13.7 66 +27  1011.3  735  273           
18 19.07.12 230 (ЮЗ) 4000 м    9/4 600 м кучево-дожд., средняя 
[Cb cap|Ac trans]
+20 +14.3 70 +28  1010.8  -0.5  734  273           
21 19.07.12 250 (З) >10 км    10/10 600 м кучево-дожд. 
[Cb cap]
+19.4 +14 71 +28  1010.4  -0.5  734  273           
00 20.07.12 тихо ()   >10 км    10/10 600 м кучево-дожд. 
[Cb cap]
+18.5 +14.1 76 +26  1010.9  0.4  734  274  +17.7         
03 20.07.12 030 (СВ) 4000 м  дым  10/10 600 м кучево-дожд. 
[Cb cap]
+22.5 +16.3 68 +34  1010.6  0.3  734  270           
06 20.07.12 030 (СВ) >10 км    9/8 600 м кучево-дожд., верхняя 
[Cb cap|Ci fib]
+26.6 +13.6 45 +33  1010.7  0.4  735  267           
09 20.07.12 350 (С) >10 км    9/4 600 м кучево-дожд., верхняя 
[Cb cap|Ci fib]
+27.8 +11 35 +31  1010.5  -0.1  735  267           
12 20.07.12 050 (СВ) >10 км    3/3 600 м кучево-дожд. 
[Cb cap]
+26.6 +13.4 44 +33  1010.6  735  267    +28.4       
15 20.07.12 260 (З) >10 км    4/4 2000 м средняя 
[Ac trans]
+18.8 +12.4 66 +25  1012  0.5  735  275           
18 20.07.12 тихо ()   4000 м    8/8 2000 м средняя 
[Ac trans]
+19.2 +12.6 66 +24  1011.7  -0.2  735  274           
21 20.07.12 тихо ()   >10 км    9/8 600 м кучево-дожд., средняя 
[Cb cap|Ac trans]
+17.7 +13.1 74 +24  1011.8  -0.1  735  275           
00 21.07.12 300 (СЗ) >10 км  гроза без осадков  10/10 600 м кучево-дожд. 
[Cb cap]
+17.3 +13.8 80 +26  1012.6  0.8  735  276  +16.4         
03 21.07.12 040 (СВ) >10 км  {гроза, ливн. осадки}  9/6 600 м кучево-дожд., верхняя 
[Cb cap|Ci fib]
+20.5 +16.2 76 +32  1011.9  -0.3  735  272           
06 21.07.12 060 (СВ) >10 км  {гроза, ливн. осадки}  4/0 верхняя 
[Ci fib]
+24.3 +17.6 66 +38  1011.2  -0.2  735  268           
09 21.07.12 040 (СВ) >10 км    8/4 600 м кучево-дожд., верхняя 
[Cb cap|Ci fib]
+26.7 +15.6 51 +37  1010.2  -0.8  734  266           
12 21.07.12 160 (Ю) >10 км    9/8 600 м кучево-дожд., верхняя 
[Cb cap|Ci fib]
+23 +15.7 63 +33  1012  1.4  735  270    +27.2  0.8     
15 21.07.12 250 (З) >10 км    9/3 600 м кучево-дожд., верхняя 
[Cb cap|Ci fib]
+18.6 +14.3 76 +28  1013  0.4  736  275           
18 21.07.12 240 (ЮЗ) 4000 м    4/0 верхняя 
[Ci fib]
+15.2 +12.8 86 +23  1014.3  0.9  736  279           
21 21.07.12 240 (ЮЗ) 4000 м  дымка  4/3 600 м кучево-дожд., верхняя 
[Cb cap|Ci fib]
+13.8 +12.5 92 +20  1014.9  0.3  737  280           
00 22.07.12 тихо ()   >10 км    9/0 верхняя 
[Ci fib]
+15.9 +13.7 87 +23  1015.4  0.9  737  278  +13.1         
03 22.07.12 060 (СВ) >10 км    10/0 верхняя 
[Cs]
+21.9 +16.3 70 +33  1015  0.3  738  272           
06 22.07.12 050 (СВ) >10 км    8/3 600 м верхняя 
[Cu med, cong|Ci fib]
+26 +13.4 46 +32  1014.2  -0.4  737  269           
09 22.07.12 060 (СВ) >10 км    9/3 600 м средняя, верхняя 
[Cu med, cong|Ac trans|Ci fib]
+28.1 +12.4 38 +33  1012.8  -1.2  736  267           
12 22.07.12 040 (СВ) >10 км    5/3 600 м верхняя 
[Cu med, cong|Ci fib]
+27.3 +13.2 42 +33  1012.2  -0.6  736  267    +28.9       
15 22.07.12 230 (ЮЗ) >10 км    8/5 2000 м средняя, верхняя 
[Ac trans|Ci fib]
+20.1 +14 68 +28  1013  736  273           
18 22.07.12 240 (ЮЗ) 4000 м    4/0 верхняя 
[Ci fib]
+17.5 +13 75 +25  1013.1  -0.2  736  276           
21 22.07.12 тихо ()   >10 км    5/3 2000 м средняя, верхняя 
[Ac trans|Ci fib]
+15.7 +12.6 82 +21  1012.5  -0.8  735  278           
00 23.07.12 210 (ЮЗ) >10 км    3/0 верхняя 
[Ci fib]
+17.3 +13.8 80 +26  1012.2  -0.1  735  276  +15         
03 23.07.12 050 (СВ) >10 км    4/0 верхняя 
[Ci fib]
+23 +14.2 58 +31  1011.1  -0.4  735  270           
06 23.07.12 070 (В) >10 км    6/3 1000 м верхняя 
[Cu hum|Ci fib]
+26.7 +10 35 +28  1009.9  -0.9  734  268           
09 23.07.12 060 (СВ) >10 км    ясно 
+27.8 +7 27 +28  1008.5  -1.2  733  267           
12 23.07.12 100 (В) >10 км    4/4 1000 м 
[Cu hum]
+26.6 +7.8 30 +27  1008.3  -0.3  733  268    +28.5       
15 23.07.12 220 (ЮЗ) >10 км    ясно 
+18.9 +9 53 +20  1009.1  -0.1  733  275           
18 23.07.12 230 (ЮЗ) 4000 м    ясно 
+14.9 +9.3 69 +17  1009.7  0.2  733  278           
21 23.07.12 230 (ЮЗ) >10 км    3/0 верхняя 
[Ci fib]
+12.6 +9 79 +13  1009.9  -0.1  733  281           
00 24.07.12 020 (С) >10 км    3/0 верхняя 
[Cc]
+17 +11.5 70 +22  1009.4  0.1  733  276  +11.9         
03 24.07.12 040 (СВ) >10 км    8/6 2000 м средняя, верхняя 
[Ac trans|Ci fib]
+20.9 +11.3 54 +24  1008.6  -0.5  733  272           
06 24.07.12 070 (В) >10 км    9/4 600 м кучево-дожд., верхняя 
[Cb cap|Ci fib]
+24.8 +13.1 48 +31  1007.1  -0.9  732  268           
09 24.07.12 090 (В) >10 км    9/5 600 м кучево-дожд., верхняя 
[Cb cap|Ci fib]
+25.1 +11.5 43 +29  1006.6  -0.5  732  268           
12 24.07.12 030 (СВ) >10 км    9/3 600 м кучево-дожд., верхняя 
[Cb cap|Ci fib]
+25.9 +13.3 46 +32  1006  -0.4  731  267    +27       
15 24.07.12 210 (ЮЗ) >10 км    9/0 верхняя 
[Ci]
+18.5 +12.8 69 +26  1007.4  0.4  732  274           
18 24.07.12 тихо ()   4000 м    4/0 верхняя 
[Ci fib]
+16.2 +12.2 77 +21  1007.9  0.3  732  276           
21 24.07.12 тихо ()   >10 км    9/0 верхняя 
[Ci fib]
+13.4 +11.3 87 +17  1008.3  732  279           
00 25.07.12 тихо ()   >10 км    9/0 верхняя 
[Ci fib]
+15.3 +12.4 83 +20  1008.4  0.3  732  277  +12.8         
03 25.07.12 070 (В) >10 км    9/0 верхняя 
[Ci fib]
+22.2 +14.2 61 +30  1007.3  -0.3  732  270           
06 25.07.12 030 (СВ) 4000 м  дым  9/5 2000 м средняя, верхняя 
[Ac trans|Ci fib]
+27.3 +11.7 38 +31  1006.2  -0.5  731  266           
09 25.07.12 040 (СВ) 4000 м  дым  9/5 2000 м средняя, верхняя 
[Ac und|Ci fib]
+27.8 +7.6 28 +28  1005.7  -0.4  731  266           
12 25.07.12 110 (В) >10 км  дым  9/0 верхняя 
[Ci fib]
+26.8 +10.2 35 +29  1005.7  -0.1  731  266    +29       
15 25.07.12 230 (ЮЗ) 10 км    9/4 2000 м средняя, верхняя 
[Ac trans|Ci fib]
+18.9 +10.2 57 +22  1006.7  0.1  731  274           
18 25.07.12 230 (ЮЗ) 4000 м    8/0 верхняя 
[Ci fib]
+15.7 +9.8 68 +18  1007.1  0.1  731  277           
21 25.07.12 тихо ()   10 км    ясно 
+14.7 +9.4 70 +16  1007.2  731  278           
00 26.07.12 тихо ()   4000 м    ясно 
+13.6 +10.4 81 +16  1007.8  0.4  732  279  +12.3         
03 26.07.12 080 (В) 4000 м  дым  9/4 2000 м средняя, верхняя 
[Ac trans|Ci fib]
+20.6 +12.8 61 +26  1006.8  -0.2  731  272           
06 26.07.12 090 (В) >10 км    9/3 2000 м средняя, верхняя 
[Ac trans|Ci fib]
+26.7 +9.8 35 +28  1004.9  -1.2  731  266           
09 26.07.12 060 (СВ) >10 км    ясно 
+28.9 +9.9 31 +30  1004  -0.7  730  264           
12 26.07.12 070 (В) >10 км    ясно 
+27.8 +11 35 +31  1003.7  -0.4  730  265    +29.4       
15 26.07.12 260 (З) >10 км    ясно 
+19.8 +11.9 60 +25  1005  0.4  730  272           
18 26.07.12 240 (ЮЗ) 4000 м    ясно 
+17.3 +11.4 68 +22  1004.9  -0.3  730  274           
21 26.07.12 тихо ()   >10 км    ясно 
+14.3 +11.3 82 +18  1005  -0.2  730  277           
00 27.07.12 тихо ()   >10 км  дымка  ясно 
+15.9 +13 83 +22  1005  0.2  730  275  +12.9         
03 27.07.12 тихо ()   4000 м  дым  ясно 
+23.5 +13.5 53 +30  1004.2  -0.1  730  268           
06 27.07.12 тихо ()   >10 км    ясно 
+28.7 +11.1 34 +32  1003.3  -0.3  729  264           
12 27.07.12 080 (В) >10 км    3/0 верхняя 
[Ci fib]
+28.1 +13.4 40 +35  1002.5  0.1  729  264    +30.4       
15 27.07.12 260 (З) 2000 м  дым  ясно 
+20.4 +13.2 63 +27  1004.5  730  271           
18 27.07.12 250 (З) н/о  дымка  ясно 
+18.4 +13.1 71 +25  1004.5  -0.2  730  273           
21 27.07.12 260 (З) 4000 м  дымка  ясно 
+15.5 +12.6 83 +22  1005.1  0.3  730  276           
00 28.07.12 тихо ()   4000 м  дымка  ясно 
+16.6 +14.3 86 +25  1006.4  1.4  731  275  +14.9         
03 28.07.12 100 (В) 4000 м  дым  ясно 
+22.9 +15.1 61 +32  1005.8  0.1  731  269           
06 28.07.12 080 (В) >10 км    8/3 600 м верхняя 
[Cu med, cong|Ci fib]
+28.7 +15.3 44 +39  1004.7  -0.4  731  263           
09 28.07.12 030 (СВ) >10 км    4/3 600 м средняя 
[Cu med, cong|Ac lent]
+30.3 +13.2 35 +37  1004.2  -0.4  730  262           
12 28.07.12 080 (В) >10 км    3/3 600 м 
[Cu med, cong]
+28.7 +14.5 42 +37  1004.3  730  263    +30.7       
15 28.07.12 260 (З) >10 км    3/3 2000 м средняя 
[Ac trans]
+21.9 +14.2 62 +30  1005.7  0.6  731  270           
18 28.07.12 240 (ЮЗ) 4000 м    4/0 верхняя 
[Ci fib]
+19.3 +14.1 72 +29  1006.4  0.4  731  272           
21 28.07.12 250 (З) >10 км    5/0 верхняя 
[Ci fib]
+16.9 +13.9 82 +25  1006.5  -0.1  731  274           
00 29.07.12 тихо ()   >10 км    ясно 
+18 +14.6 81 +27  1007.2  0.8  732  273  +15.7         
03 29.07.12 030 (СВ) >10 км    ясно 
+24 +15.8 60 +35  1006.8  0.2  732  268           
06 29.07.12 130 (ЮВ) >10 км    3/3 600 м 
[Cu med, cong]
+28.2 +13.1 39 +34  1005.5  -0.8  731  264           
09 29.07.12 100 (В) >10 км    6/6 600 м 
[Cu med, cong]
+30.3 +13.4 36 +37  1004.4  -0.9  730  262           
12 29.07.12 040 (СВ) >10 км    3/3 600 м 
[Cu med, cong]
+29.3 +14.9 42 +39  1003.9  -0.6  730  263    +30.7       
15 29.07.12 260 (З) 10 км    ясно 
+21.5 +15.1 67 +31  1005.3  0.5  730  270           
18 29.07.12 260 (З) 4000 м    ясно 
+19.1 +14.7 76 +29  1005.8  0.3  731  272           
21 29.07.12 260 (З) 10 км    3/0 верхняя 
[Ci fib]
+17.6 +13.9 79 +26  1005.9  -0.1  731  274           
00 30.07.12 тихо ()   10 км    ясно 
+19.5 +15.6 78 +30  1005.8  0.2  731  271  +16.6        сухая 
03 30.07.12 330 (СЗ) 10 км  дым  9/4 2000 м средняя, верхняя 
[Ac trans|Ci fib]
+26.9 +16.2 52 +38  1004.7  -0.3  730  264           
06 30.07.12 240 (ЮЗ) 4000 м  ливневой дождь  10/10 600 м кучево-дожд. 
[Cb cap]
+23.2 +20.1 83 +43  1004.8  -0.2  730  266           
09 30.07.12 070 (В) 10 км  {ливн. осадки}  9/5 600 м кучево-дожд., средняя 
[Cb cap|Ac und]
+28.3 +17.7 53 +43  1003.4  -0.9  730  262           
12 30.07.12 тихо ()   4000 м  дым{ливн. осадки}  10/10 600 м кучево-дожд. 
[Cb cap]
+27.1 +18.1 58 +43  1003.6  0.1  730  263    +28.8     
15 30.07.12 250 (З) 4000 м  дым{гроза}  9/8 600 м кучево-дожд., верхняя 
[Cb cap|Ci fib]
+22.8 +16 65 +34  1004.8  0.6  730  268           
18 30.07.12 240 (ЮЗ) н/о  дым{гроза}  8/4 600 м кучево-дожд., верхняя 
[Cb cap|Ci fib]
+19.4 +16.6 84 +33  1004.7  -0.4  730  271           
21 30.07.12 тихо ()   4000 м  дымка  8/3 600 м кучево-дожд., верхняя 
[Cb cap|Ci fib]
+17.5 +15.7 89 +28  1004.1  -0.7  729  273           
00 31.07.12 тихо ()   4000 м  дымка  9/8 600 м кучево-дожд., верхняя 
[Cb cap|Ci fib]
+19 +16.7 87 +32  1005.2  1.1  730  271  +16.6         
03 31.07.12 200 (Ю) 4000 м  дым  6/3 2000 м средняя, верхняя 
[Ac trans|Ci fib]
+26.3 +17.4 58 +40  1003.7  -0.6  730  264           
06 31.07.12 260 (З) 4000 м  гроза без осадков  9/8 600 м кучево-дожд., средняя 
[Cb cap|Ac trans]
+27.7 +18.1 56 +43  1002.9  -0.6  729  263           
09 31.07.12 260 (З) 4000 м  дым{гроза}  8/6 600 м средняя, верхняя 
[Ac trans|Ci fib]
+29 +17.7 51 +44  1002  -0.8  729  261           
12 31.07.12 280 (З) 4000 м  слаб. ливневой дождь{гроза}  8/8 600 м кучево-дожд. 
[Cb cap]
+23.1 +19.8 82 +42  1002.8  0.2  729  266    +30.2  0.4     
15 31.07.12 240 (ЮЗ) 4000 м  дымка{ливн. осадки}  10/10 600 м кучево-дожд. 
[Cb cap]
+20.3 +17.2 82 +34  1004  0.8  729  270           
18 31.07.12 250 (З) н/о  дымка  10/10 600 м кучево-дожд. 
[Cb cap]
+18.3 +15.1 82 +29  1003.7  -0.5  729  272           
21 31.07.12 310 (СЗ) 4000 м  дымка  10/10 600 м кучево-дожд. 
[Cb cap]
+19.7 +16.9 84 +34  1003.1  -0.4  729  270           
00 01.08.12 тихо ()   4000 м  дымка  10/10 600 м кучево-дожд. 
[Cb cap]
+17.8 +16.1 90 +29  1003.8  0.5  729  272  +16.5    0.0     
03 01.08.12 070 (В) 2000 м  дымка  5/3 2000 м средняя, верхняя 
[Ac trans|Ci fib]
+22.3 +17.4 74 +36  1003.6  0.3  729  268           
06 01.08.12 270 (З) 2000 м  дым  6/6 600 м кучево-дожд. 
[Cb cap]
+26.9 +16.4 53 +39  1002.1  -1  729  264           
Время (UTC), дата Ветер
(°,м/с) 
Видим.   Явления Облачность Т
(°С)
Тd
(°С)
f(%) Тe
(°С)
Pmin
(гПа)
dP
(гПа)
Po
(мм)
O2
(г/м3)
Тmin Tmax R s Состояние
почвы